• Join FlightAware (Why Join?)
  • Login
  • US Flag 
11:50AM EST


 

Airport Tracker/Info


-or-


 

Live Flight TrackerFlight Track Log ✈ SWA917 ✈ 02-May-2012 ✈ KLAS - KSNA

Flight Track Log - Related Links

Times and Time Zones

All times are in EDT time to prevent confusion due to time zone crossing. See the SWA917 flight status page for this flight to view local times or setup timezone preferences in your user account.

Time Position Orientation Groundspeed Altitude Reporting Facility
EDT Latitude Longitude Course Direction KTS MPH feet Rate Location/Type
07:43PM 36.0664 -115.1708 208° Southwest 162 186 3,100  Level Los Angeles Center
07:44PM 36.0144 -115.2047 241° Southwest 216 249 5,100 2,380 Climbing Los Angeles Center
07:45PM 35.9756 -115.2897 192° South 273 314 7,900 3,197 Climbing Los Angeles Center
07:46PM 35.9067 -115.3083 181° South 285 328 11,600 3,049 Climbing Los Angeles Center
07:47PM 35.8211 -115.3094 176° South 297 342 14,100 2,800 Climbing Los Angeles Center
07:48PM 35.7189 -115.3000 207° Southwest 335 386 17,200 3,000 Climbing Los Angeles Center
07:49PM 35.6256 -115.3597 228° Southwest 348 400 20,100 2,800 Climbing Los Angeles Center
07:50PM 35.5508 -115.4625 228° Southwest 357 411 22,800 1,850 Climbing Los Angeles Center
07:51PM 35.4742 -115.5653 228° Southwest 385 443 23,800 1,850 Climbing Los Angeles Center
07:52PM 35.3975 -115.6703 227° Southwest 406 467 26,500 2,100 Climbing Los Angeles Center
07:53PM 35.3228 -115.7700 227° Southwest 411 473 28,000 750 Climbing Los Angeles Center
07:54PM 35.2436 -115.8744 228° Southwest 416 479 28,000  Level Los Angeles Center
07:55PM 35.1686 -115.9764 226° Southwest 416 479 28,000  Level Los Angeles Center
07:56PM 35.0914 -116.0756 227° Southwest 416 479 28,000  Level Los Angeles Center
07:57PM 35.0142 -116.1769 228° Southwest 416 479 28,000  Level Los Angeles Center
07:58PM 34.9392 -116.2783 226° Southwest 416 479 28,000  Level Los Angeles Center
07:59PM 34.8597 -116.3794 226° Southwest 416 479 28,000 -450 Level Los Angeles Center
08:00PM 34.7822 -116.4778 227° Southwest 416 479 27,100 -1,550 Descending Los Angeles Center
08:01PM 34.7067 -116.5761 225° Southwest 410 472 24,900 -2,100 Descending Los Angeles Center
08:02PM 34.6292 -116.6692 225° Southwest 405 466 22,900 -2,000 Descending Los Angeles Center
08:03PM 34.5536 -116.7619 224° Southwest 394 453 20,900 -1,950 Descending Los Angeles Center
08:04PM 34.4819 -116.8469 225° Southwest 381 438 19,000 -2,000 Descending Los Angeles Center
08:05PM 34.4128 -116.9319 230° Southwest 369 425 16,900 -1,850 Descending Los Angeles Center
08:06PM 34.3600 -117.0094 222° Southwest 359 413 15,300 -1,700 Descending Los Angeles Center
08:07PM 34.2906 -117.0842 197° South 340 391 13,500 -1,150 Descending Los Angeles Center
08:08PM 34.2025 -117.1158 179° South 320 368 13,000 -250 Descending Los Angeles Center
08:09PM 34.1169 -117.1147 183° South 301 346 13,000  Level Los Angeles Center
08:10PM 34.0833 -117.1167 180° South 302 348 13,000 -706 Level Southern California TRACON
08:10PM 34.0000 -117.1167 212° Southwest 308 354 12,000 -1,200 Descending Southern California TRACON
08:11PM 33.9333 -117.1667 244° Southwest 299 344 10,700 -1,150 Descending Southern California TRACON
08:12PM 33.9000 -117.2500 244° Southwest 282 325 9,700 -1,000 Descending Southern California TRACON
08:13PM 33.8667 -117.3333 254° West 273 314 8,700 -821 Descending Southern California TRACON
08:14PM 33.8558 -117.3794 248° West 272 313 8,400 -442 Descending Los Angeles Center
08:15PM 33.8278 -117.4614 245° Southwest 272 313 8,000 -200 Descending Los Angeles Center
08:16PM 33.7978 -117.5386 260° West 267 307 8,000 -300 Level Los Angeles Center
08:17PM 33.7864 -117.6133 294° West 249 287 7,400 -923 Descending Los Angeles Center
08:18PM 33.8000 -117.6500 292° West 197 227 6,600 -1,535 Descending Southern California TRACON
08:18PM 33.8167 -117.7000 309° West 172 198 5,200 -1,617 Descending Southern California TRACON
08:19PM 33.8500 -117.7500 220° Southwest 185 213 3,500 -1,048 Descending Southern California TRACON
08:21PM 33.8167 -117.7833 203° Southwest 163 188 3,000 -667 Descending Southern California TRACON
08:22PM 33.7833 -117.8000 220° Southwest 153 176 2,100 -842 Descending Southern California TRACON
08:22PM 33.7500 -117.8333 195° South 154 177 1,400 -750 Descending Southern California TRACON
08:24PM 33.7000 -117.8500 195° South 141 162 600 -727 Descending Southern California TRACON